Simultaneous Nadir Overpasses (SNOs) Predictions

Prediction of SNOs between LANDSAT-8 and METOP-B Satellite Orbit:

Table of predicted SNOs for the next 14.0 days since TLE Epoch: 10/26/2019
Index Date (LANDSAT-8) Time (LANDSAT-8) Lat,Lon (LANDSAT-8) SZA (LANDSAT-8 ) Date (METOP-B) Time (METOP-B) Lat,Lon (METOP-B) SZA (METOP-B ) Distance(km) Time Diff (sec)
1 10/27/2019 17:37:30 81.09, -44.90 96.30 10/27/2019 17:37:08 81.09, -45.00 96.28 1.69 22
2 10/27/2019 18:26:56 -81.11, 123.06 83.65 10/27/2019 18:27:47 -81.12, 123.18 83.61 2.23 51
3 10/30/2019 13:11:45 81.09, 21.59 97.24 10/30/2019 13:11:32 81.09, 21.45 97.22 2.45 13
4 10/30/2019 14:01:11 -81.12,-170.44 82.70 10/30/2019 14:02:11 -81.12,-170.37 82.67 1.23 60
5 11/02/2019 08:45:59 81.09, 88.05 98.15 11/02/2019 08:45:55 81.09, 87.87 98.12 3.01 4
6 11/02/2019 09:35:25 -81.12,-103.96 81.79 11/02/2019 09:36:34 -81.12,-103.94 81.76 0.45 69
7 11/05/2019 03:30:49 -81.07, -13.54 81.06 11/05/2019 03:29:40 -81.07, -13.54 81.08 0.45 69
8 11/05/2019 04:20:14 81.09, 154.48 99.02 11/05/2019 04:20:18 81.10, 154.66 99.05 3.31 4
9 11/07/2019 23:05:04 -81.07, 52.88 80.22 11/07/2019 23:04:04 -81.07, 52.86 80.25 0.69 60




NCC Satellite Simultaneous Nadir Overpasses (SNOs) Prediction Service
